Amsterdam, Netherlands

7:12 AM CEST on October 16, 2019 (GMT +0200)
Schiphol

Weather History for EHAM - August, 2019

Change the Weather History Date:

Saturday, August 10, 2019

  Actual Average Record
Temperature  
Mean Temperature 68 °F -  
Max Temperature 73 °F 67 °F 87 °F (1997)
Min Temperature 63 °F 54 °F 48 °F (2011)
Cooling Degree Days 3    
Growing Degree Days 18 (Base 50)    
Moisture  
Dew Point 57 °F    
Average Humidity 66    
Maximum Humidity 88    
Minimum Humidity 39    
Precipitation  
Precipitation 0.02 in - - ()
Sea Level Pressure  
Sea Level Pressure 29.73 in    
Wind  
Wind Speed 20 mph ()    
Max Wind Speed 38 mph    
Max Gust Speed 52 mph    
Visibility 7.9 miles    
Events Rain    
Averages and records for this station are not official NWS values.
T = Trace of Precipitation, MM = Missing Value Source: Averaged Metar Reports

Daily Weather History Graph

Daily Weather History Graph

Search for Another Location

Airport or City:

Astronomy

Aug. 10, 2019 Rise Set
Actual Time 6:15 AM CEST 9:16 PM CEST
Civil Twilight 5:35 AM CEST 9:55 PM CEST
Nautical Twilight 4:43 AM CEST 10:47 PM CEST
Astronomical Twilight 3:35 AM CEST 11:53 PM CEST
Moon 5:57 PM CEST (8/10) 1:31 AM CEST (8/10)
Length of Visible Light 16h 20m
Length of Day
15h 01m
Waxing Gibbous, 77% of the Moon is Illuminated
Aug 10
Waxing Gibbous
Aug 15
Full
Aug 23
Last Quarter
Aug 30
New
Sep 6
First Quarter

Hourly Weather History & Observations

Time (CEST) Temp. Dew Point Humidity Pressure Visibility Wind Dir Wind Speed Gust Speed Precip Events Conditions
12:00 AM 67 °F 62 °F 79% 29.65 in 25 mi South 8.9 mph - -   Partly Cloudy
12:25 AM 68.0 °F 62.6 °F 83% 29.65 in - South 11.5 mph - N/A   Clear
12:55 AM 68.0 °F 60.8 °F 78% 29.65 in - South 13.8 mph - N/A   Clear
1:00 AM 68 °F 61 °F 73% 29.66 in 28 mi South 13.4 mph - -   Partly Cloudy
1:25 AM 68.0 °F 60.8 °F 78% 29.65 in 6.2 mi South 15.0 mph - N/A   Partly Cloudy
1:55 AM 68.0 °F 60.8 °F 78% 29.62 in 6.2 mi South 15.0 mph - N/A   Partly Cloudy
2:00 AM 68 °F 61 °F 72% 29.64 in 25 mi South 15.7 mph - -   Partly Cloudy
2:25 AM 68.0 °F 60.8 °F 78% 29.62 in 6.2 mi South 13.8 mph - N/A   Partly Cloudy
2:55 AM 68.0 °F 60.8 °F 78% 29.62 in - South 15.0 mph - N/A   Clear
3:00 AM 68 °F 61 °F 73% 29.64 in 22 mi SSW 15.7 mph - -   Partly Cloudy
3:25 AM 68.0 °F 60.8 °F 78% 29.62 in - SSW 16.1 mph - N/A   Clear
3:55 AM 68.0 °F 60.8 °F 78% 29.62 in - SSW 16.1 mph - N/A   Clear
4:25 AM 66.2 °F 60.8 °F 83% 29.62 in 6.2 mi SSW 17.3 mph - N/A   Partly Cloudy
4:55 AM 66.2 °F 60.8 °F 83% 29.62 in 6.2 mi SSW 17.3 mph - N/A   Partly Cloudy
5:25 AM 66.2 °F 60.8 °F 83% 29.62 in 6.2 mi SSW 19.6 mph - N/A   Partly Cloudy
5:55 AM 66.2 °F 59.0 °F 78% 29.62 in 6.2 mi South 18.4 mph - N/A   Partly Cloudy
6:00 AM 66 °F 60 °F 74% 29.64 in 17 mi South 20.1 mph - -   Partly Cloudy
6:25 AM 66.2 °F 59.0 °F 78% 29.62 in 6.2 mi SSW 23.0 mph 34.5 mph N/A Rain Light Rain Showers
6:55 AM 64.4 °F 59.0 °F 83% 29.65 in 6.2 mi SW 24.2 mph 41.4 mph N/A   Scattered Clouds
7:00 AM 64 °F 59 °F 78% 29.65 in 25 mi SSW 17.9 mph - - Rain Rain
7:25 AM 64.4 °F 60.8 °F 88% 29.65 in 6.2 mi South 13.8 mph - N/A   Scattered Clouds
7:55 AM 66.2 °F 59.0 °F 78% 29.65 in 6.2 mi SSW 21.9 mph - N/A   Scattered Clouds
8:00 AM 67 °F 58 °F 67% 29.66 in 17 mi SSW 22.4 mph - -   Partly Cloudy
8:25 AM 66.2 °F 59.0 °F 78% 29.65 in 6.2 mi SSW 23.0 mph - N/A   Partly Cloudy
8:55 AM 68.0 °F 59.0 °F 73% 29.65 in 6.2 mi SSW 23.0 mph - N/A   Scattered Clouds
9:00 AM 67 °F 59 °F 68% 29.68 in 16 mi SSW 22.4 mph - - Rain Rain
9:25 AM 64.4 °F 59.0 °F 83% 29.68 in 6.2 mi SW 25.3 mph - N/A   Scattered Clouds
9:55 AM 66.2 °F 60.8 °F 83% 29.68 in 6.2 mi SSW 25.3 mph - N/A   Mostly Cloudy
10:00 AM 65 °F 60 °F 78% 29.70 in 16 mi SSW 22.4 mph - - Rain Rain
10:25 AM 66.2 °F 59.0 °F 78% 29.68 in 4.3 mi SSW 26.5 mph 40.3 mph N/A Rain Light Rain Showers
10:55 AM 64.4 °F 60.8 °F 88% 29.71 in 6.2 mi SW 24.2 mph 35.7 mph N/A   Scattered Clouds
11:00 AM 65 °F 60 °F 80% 29.72 in 7 mi SW 24.6 mph - - Rain Light Rain Showers
11:25 AM 66.2 °F 60.8 °F 83% 29.71 in 6.2 mi SW 24.2 mph - N/A   Scattered Clouds
11:55 AM 68.0 °F 59.0 °F 73% 29.71 in 6.2 mi SW 25.3 mph 36.8 mph N/A   Scattered Clouds
12:25 PM 69.8 °F 57.2 °F 64% 29.74 in 6.2 mi SW 27.6 mph 40.3 mph N/A   Scattered Clouds
12:55 PM 69.8 °F 55.4 °F 60% 29.74 in 6.2 mi SW 32.2 mph 43.7 mph N/A   Mostly Cloudy
1:00 PM 70 °F 56 °F 50% 29.74 in 12 mi SW 31.3 mph - -   Partly Cloudy
1:25 PM 69.8 °F 55.4 °F 60% 29.74 in 6.2 mi SW 29.9 mph - N/A   Mostly Cloudy
1:55 PM 69.8 °F 55.4 °F 60% 29.74 in 6.2 mi SW 32.2 mph 47.2 mph N/A   Mostly Cloudy
2:00 PM 70 °F 56 °F 50% 29.76 in 13 mi SW 26.8 mph - -   Partly Cloudy
2:25 PM 71.6 °F 53.6 °F 53% 29.74 in 6.2 mi SW 33.4 mph 44.9 mph N/A   Partly Cloudy
2:55 PM 73.4 °F 55.4 °F 53% 29.74 in 6.2 mi SW 32.2 mph 47.2 mph N/A   Scattered Clouds
3:00 PM 71 °F 54 °F 46% 29.77 in 14 mi SW 31.3 mph - -   Partly Cloudy
3:25 PM 71.6 °F 55.4 °F 57% 29.77 in 6.2 mi SSW 32.2 mph 43.7 mph N/A   Scattered Clouds
3:55 PM 71.6 °F 55.4 °F 57% 29.77 in 6.2 mi SW 34.5 mph 47.2 mph N/A   Partly Cloudy
4:00 PM 73 °F 54 °F 40% 29.78 in 11 mi SW 35.8 mph - - Rain Rain
4:25 PM 71.6 °F 53.6 °F 53% 29.77 in 6.2 mi SW 35.7 mph 47.2 mph N/A   Partly Cloudy
4:55 PM 71.6 °F 55.4 °F 57% 29.77 in 6.2 mi SW 35.7 mph 47.2 mph N/A   Partly Cloudy
5:00 PM 72 °F 54 °F 42% 29.79 in 11 mi SW 35.8 mph - -   Partly Cloudy
5:25 PM 71.6 °F 53.6 °F 53% 29.77 in 6.2 mi SW 35.7 mph 49.5 mph N/A   Partly Cloudy
5:55 PM 71.6 °F 51.8 °F 50% 29.80 in 6.2 mi SW 32.2 mph 51.8 mph N/A   Partly Cloudy
6:00 PM 72 °F 53 °F 40% 29.81 in 10 mi SW 33.6 mph - -   Partly Cloudy
6:25 PM 69.8 °F 53.6 °F 56% 29.80 in 6.2 mi SW 36.8 mph 49.5 mph N/A   Partly Cloudy
6:55 PM 71.6 °F 51.8 °F 50% 29.80 in 6.2 mi SW 35.7 mph 48.3 mph N/A   Partly Cloudy
7:00 PM 71 °F 51 °F 39% 29.81 in 12 mi SW 38.0 mph - -   Partly Cloudy
7:25 PM 69.8 °F 53.6 °F 56% 29.80 in 6.2 mi SW 35.7 mph 48.3 mph N/A   Partly Cloudy
7:55 PM 69.8 °F 53.6 °F 56% 29.80 in 6.2 mi SW 35.7 mph 47.2 mph N/A   Partly Cloudy
8:00 PM 69 °F 53 °F 47% 29.83 in 10 mi SW 33.6 mph - -   Partly Cloudy
8:25 PM 68.0 °F 51.8 °F 56% 29.83 in 6.2 mi SW 31.1 mph 42.6 mph N/A   Partly Cloudy
8:55 PM 68.0 °F 53.6 °F 60% 29.83 in 6.2 mi SW 28.8 mph 41.4 mph N/A   Partly Cloudy
9:00 PM 67 °F 52 °F 49% 29.84 in 11 mi SW 33.6 mph - -   Partly Cloudy
9:25 PM 66.2 °F 53.6 °F 64% 29.83 in 6.2 mi SW 29.9 mph 41.4 mph N/A   Partly Cloudy
9:55 PM 66.2 °F 53.6 °F 64% 29.83 in 6.2 mi SW 26.5 mph 38.0 mph N/A   Partly Cloudy
10:00 PM 66 °F 53 °F 53% 29.86 in 10 mi SW 29.1 mph - -   Partly Cloudy
10:25 PM 66.2 °F 53.6 °F 64% 29.86 in - SW 27.6 mph 39.1 mph N/A   Clear
10:55 PM 64.4 °F 53.6 °F 68% 29.86 in - SW 24.2 mph 35.7 mph N/A   Clear
11:00 PM 65 °F 53 °F 57% 29.87 in 9 mi SW 26.8 mph - -   Partly Cloudy
11:25 PM 64.4 °F 53.6 °F 68% 29.86 in - SW 25.3 mph - N/A   Clear
11:55 PM 64.4 °F 53.6 °F 68% 29.86 in - SW 20.7 mph - N/A   Clear